Location: Hermaringen
(48.5952°N, 10.2585°E)
Time: 21:47:19
(UTC+00:00)

Timation 1 Rocket - Pass Details

Date: 18 November 2025
Orbit: 898 x 905 km, 70.0° (Epoch: 10 December)

Event Time Altitude Azimuth Distance (km) Brightness Sun altitude
Rises 16:50:40 0° 329° (NNW) 3,528 7.6 -12.3°
Reaches altitude 10° 16:53:10 10° 329° (NNW) 2,585 6.9 -12.6°
Maximum altitude 16:59:09 81° 243° (WSW) 917 4.5 -13.6°
Drops below altitude 10° 17:05:06 10° 157° (SSE) 2,572 6.6 -14.6°
Sets 17:07:35 0° 156° (SSE) 3,510 7.3 -15.0°
